AZO955 UHSS-UEST

Flight info

Callsign AZO955
Flight time N/A
Altitude 35000
Route IDRUT1 IDRUT R446 LIKON B223 ODEPI B933 OMAVI/K0835F370 B933 INDIK/K0828F360 A950 NEBAT W126 DAZRI DAZRI2
Aircraft A320/M-SDE3FGHIRWY/LB1

Departure

Time 2026-05-07 19:56
Airport Yuzhno-Sakhalinsk International Airport (UHSS)

Arrival

Time N/A
Airport Tiksi Airport (UEST)
Time Latitude Longitude Altitude Speed Heading
2026-05-07 19:56 47.04119 142.72124 5618 ft 270 kts 359°
2026-05-07 19:56 47.08646 142.72252 7394 ft 277 kts 359°
2026-05-07 19:57 47.13806 142.72381 9253 ft 285 kts 359°
2026-05-07 19:58 47.17989 142.72478 10194 ft 310 kts 358°
2026-05-07 19:58 47.21859 142.72560 10416 ft 345 kts 359°
2026-05-07 19:59 47.27906 142.71301 11635 ft 357 kts 334°
2026-05-07 20:00 47.33890 142.63533 13494 ft 359 kts 306°
2026-05-07 20:00 47.37880 142.56129 13839 ft 361 kts 306°
2026-05-07 20:01 47.42966 142.46689 13839 ft 361 kts 306°
2026-05-07 20:02 47.46502 142.40100 13837 ft 361 kts 306°
2026-05-07 20:02 47.50504 142.32626 14743 ft 365 kts 306°
2026-05-07 20:03 47.54524 142.25051 16096 ft 372 kts 306°
2026-05-07 20:04 47.58449 142.17661 17361 ft 378 kts 306°
2026-05-07 20:04 47.62399 142.10286 18600 ft 386 kts 310°
2026-05-07 20:05 47.68495 142.04741 19900 ft 404 kts 343°
2026-05-07 20:05 47.74680 142.04221 20855 ft 415 kts 359°
2026-05-07 20:06 47.77576 142.04314 21264 ft 418 kts 358°
2026-05-07 20:06 47.80486 142.04400 21657 ft 420 kts 358°
2026-05-07 20:06 47.83424 142.04485 22026 ft 422 kts 358°
2026-05-07 20:06 47.86372 142.04570 22386 ft 425 kts 358°
2026-05-07 20:07 47.89340 142.04655 22742 ft 427 kts 358°
2026-05-07 20:07 47.92313 142.04737 23088 ft 429 kts 358°
2026-05-07 20:07 47.95315 142.04819 23424 ft 431 kts 358°
2026-05-07 20:07 47.98319 142.04905 23751 ft 433 kts 358°
2026-05-07 20:08 48.01346 142.04995 24076 ft 436 kts 358°
2026-05-07 20:08 48.04382 142.05085 24382 ft 438 kts 358°
2026-05-07 20:08 48.07434 142.05172 24682 ft 440 kts 358°
2026-05-07 20:08 48.10499 142.05258 24979 ft 441 kts 358°
2026-05-07 20:09 48.13540 142.05344 25273 ft 443 kts 358°
2026-05-07 20:09 48.16635 142.05432 25571 ft 445 kts 358°
2026-05-07 20:09 48.19776 142.05527 25900 ft 446 kts 358°
2026-05-07 20:10 48.25970 142.05713 26727 ft 444 kts 358°
2026-05-07 20:10 48.29016 142.05804 27121 ft 443 kts 358°
2026-05-07 20:10 48.32094 142.05897 27512 ft 443 kts 358°
2026-05-07 20:10 48.35172 142.05990 27908 ft 442 kts 358°
2026-05-07 20:11 48.38238 142.06081 28290 ft 441 kts 358°
2026-05-07 20:11 48.41314 142.06170 28668 ft 441 kts 358°
2026-05-07 20:11 48.44374 142.06253 29042 ft 440 kts 358°
2026-05-07 20:11 48.47431 142.06336 29420 ft 439 kts 358°
2026-05-07 20:12 48.50490 142.06425 29791 ft 439 kts 358°
2026-05-07 20:12 48.53536 142.06516 30159 ft 438 kts 358°
2026-05-07 20:12 48.56577 142.06612 30532 ft 437 kts 358°
2026-05-07 20:12 48.59619 142.06706 30890 ft 437 kts 358°
2026-05-07 20:13 48.62655 142.06800 31253 ft 436 kts 358°
2026-05-07 20:13 48.65687 142.06892 31616 ft 435 kts 357°
2026-05-07 20:13 48.68717 142.06986 31973 ft 435 kts 357°
2026-05-07 20:13 48.71737 142.07076 32315 ft 434 kts 357°
2026-05-07 20:14 48.74760 142.07163 32664 ft 433 kts 357°
2026-05-07 20:14 48.77772 142.07252 33004 ft 433 kts 357°
2026-05-07 20:14 48.80781 142.07343 33337 ft 432 kts 357°
2026-05-07 20:14 48.83785 142.07433 33651 ft 432 kts 357°
2026-05-07 20:15 48.86784 142.07523 33965 ft 431 kts 357°
2026-05-07 20:15 48.89784 142.07613 34251 ft 430 kts 357°
2026-05-07 20:15 48.92774 142.07706 34520 ft 430 kts 357°
2026-05-07 20:15 48.95760 142.07798 34786 ft 429 kts 357°
2026-05-07 20:16 48.98751 142.07888 35049 ft 429 kts 357°
2026-05-07 20:16 49.01730 142.07974 35295 ft 428 kts 357°
2026-05-07 20:16 49.04710 142.08056 35535 ft 428 kts 357°
2026-05-07 20:16 49.07684 142.08139 35764 ft 427 kts 357°
2026-05-07 20:17 49.10656 142.08227 35987 ft 427 kts 357°
2026-05-07 20:17 49.13633 142.08317 36197 ft 427 kts 357°
2026-05-07 20:17 49.16595 142.08410 36391 ft 427 kts 357°
2026-05-07 20:17 49.19565 142.08682 36573 ft 429 kts
2026-05-07 20:18 49.22528 142.09240 36752 ft 429 kts
2026-05-07 20:18 49.28485 142.10365 36839 ft 433 kts
2026-05-07 20:19 49.34470 142.11502 36836 ft 434 kts
2026-05-07 20:19 49.40458 142.12627 36843 ft 434 kts
2026-05-07 20:20 49.46456 142.13759 36839 ft 434 kts
2026-05-07 20:20 49.52412 142.14885 36837 ft 434 kts
2026-05-07 20:21 49.58409 142.16041 36843 ft 434 kts
2026-05-07 20:21 49.64408 142.17181 36841 ft 434 kts
2026-05-07 20:22 49.70413 142.18316 36847 ft 435 kts
2026-05-07 20:22 49.76413 142.19458 36844 ft 435 kts
2026-05-07 20:23 49.81446 142.20426 36847 ft 435 kts
2026-05-07 20:23 49.88436 142.21778 36846 ft 435 kts
2026-05-07 20:24 49.94442 142.22932 36848 ft 435 kts
2026-05-07 20:24 50.00452 142.24104 36849 ft 435 kts
2026-05-07 20:25 50.06465 142.25276 36847 ft 435 kts
2026-05-07 20:25 50.12441 142.26430 36848 ft 435 kts
2026-05-07 20:26 50.18456 142.27595 36847 ft 435 kts
2026-05-07 20:26 50.24474 142.28768 36848 ft 436 kts
2026-05-07 20:27 50.30489 142.29948 36847 ft 436 kts
2026-05-07 20:27 50.36505 142.31133 36847 ft 436 kts
2026-05-07 20:28 50.42522 142.32317 36847 ft 436 kts
2026-05-07 20:28 50.48540 142.33510 36845 ft 436 kts
2026-05-07 20:29 50.54567 142.34712 36848 ft 436 kts
2026-05-07 20:29 50.60587 142.35911 36848 ft 436 kts
2026-05-07 20:30 50.66608 142.37123 36847 ft 436 kts
2026-05-07 20:30 50.72592 142.38314 36845 ft 436 kts
2026-05-07 20:31 50.78625 142.39511 36845 ft 436 kts
2026-05-07 20:31 50.84653 142.40718 36848 ft 436 kts
2026-05-07 20:32 50.90678 142.41930 36849 ft 437 kts
2026-05-07 20:32 50.96702 142.43142 36846 ft 437 kts
2026-05-07 20:33 51.02733 142.44371 36846 ft 437 kts
2026-05-07 20:33 51.08764 142.45599 36849 ft 437 kts
2026-05-07 20:34 51.14796 142.46819 36849 ft 437 kts
2026-05-07 20:34 51.20830 142.48036 36846 ft 437 kts
2026-05-07 20:35 51.26860 142.49269 36849 ft 437 kts
2026-05-07 20:35 51.32899 142.50517 36846 ft 437 kts
2026-05-07 20:36 51.38895 142.51761 36845 ft 437 kts
2026-05-07 20:36 51.44938 142.53001 36845 ft 437 kts
2026-05-07 20:37 51.49997 142.54037 36849 ft 437 kts
2026-05-07 20:37 51.57010 142.55482 36846 ft 438 kts
2026-05-07 20:38 51.62071 142.56533 36845 ft 438 kts
2026-05-07 20:38 51.68111 142.57798 36847 ft 438 kts
2026-05-07 20:39 51.74159 142.59055 36845 ft 438 kts
2026-05-07 20:39 51.80198 142.60293 36846 ft 438 kts
2026-05-07 20:40 51.86249 142.61299 36847 ft 437 kts
2026-05-07 20:40 51.92304 142.62169 36844 ft 437 kts
2026-05-07 20:41 51.98364 142.63081 36849 ft 437 kts
2026-05-07 20:41 52.04419 142.64035 36845 ft 437 kts
2026-05-07 20:42 52.10479 142.65019 36844 ft 437 kts
2026-05-07 20:42 52.16530 142.65998 36846 ft 438 kts
2026-05-07 20:43 52.22598 142.66964 36844 ft 438 kts
2026-05-07 20:43 52.28656 142.67935 36843 ft 438 kts
2026-05-07 20:44 52.34717 142.68907 36845 ft 438 kts
2026-05-07 20:44 52.40743 142.69879 36844 ft 438 kts
2026-05-07 20:45 52.46806 142.70866 36844 ft 438 kts
2026-05-07 20:45 52.52872 142.71854 36847 ft 438 kts
2026-05-07 20:46 52.58940 142.72854 36845 ft 438 kts
2026-05-07 20:46 52.65012 142.73873 36844 ft 438 kts
2026-05-07 20:47 52.71080 142.74885 36846 ft 438 kts
2026-05-07 20:47 52.77150 142.75903 36849 ft 439 kts
2026-05-07 20:48 52.83224 142.76927 36848 ft 439 kts
2026-05-07 20:48 52.89298 142.77935 36844 ft 439 kts
2026-05-07 20:49 52.95378 142.78928 36846 ft 439 kts
2026-05-07 20:49 53.01454 142.79925 36849 ft 439 kts
2026-05-07 20:50 53.07535 142.80930 36847 ft 439 kts
2026-05-07 20:50 53.13617 142.81927 36845 ft 439 kts
2026-05-07 20:51 53.19695 142.82934 36848 ft 439 kts
2026-05-07 20:51 53.25775 142.83950 36845 ft 439 kts
2026-05-07 20:52 53.31859 142.84968 36849 ft 439 kts
2026-05-07 20:52 53.37944 142.85987 36845 ft 440 kts
2026-05-07 20:53 53.44030 142.87010 36847 ft 440 kts
2026-05-07 20:53 53.50119 142.88035 36848 ft 440 kts
2026-05-07 20:54 53.56212 142.88708 36847 ft 438 kts 358°
2026-05-07 20:54 53.62295 142.88753 36847 ft 437 kts 356°
2026-05-07 20:55 53.68333 142.88715 36846 ft 437 kts 356°
2026-05-07 20:55 53.74420 142.88806 36847 ft 438 kts 357°
2026-05-07 20:56 53.80511 142.88988 36847 ft 438 kts 357°
2026-05-07 20:56 53.86602 142.89183 36847 ft 438 kts 357°
2026-05-07 20:57 53.92701 142.89338 36846 ft 438 kts 357°
2026-05-07 20:57 53.98797 142.89480 36847 ft 438 kts 357°
2026-05-07 20:58 54.04892 142.89636 36846 ft 438 kts 357°
2026-05-07 20:58 54.10995 142.89798 36848 ft 438 kts 357°
2026-05-07 20:59 54.17099 142.89959 36848 ft 438 kts 357°
2026-05-07 20:59 54.23196 142.90125 36846 ft 438 kts 357°
2026-05-07 21:00 54.29300 142.90303 36849 ft 439 kts 357°
2026-05-07 21:00 54.35402 142.90473 36849 ft 439 kts 357°
2026-05-07 21:01 54.41506 142.90652 36846 ft 439 kts 357°
2026-05-07 21:01 54.47612 142.90823 36847 ft 439 kts 357°
2026-05-07 21:02 54.53723 142.90994 36848 ft 439 kts 357°
2026-05-07 21:02 54.59831 142.91173 36848 ft 439 kts 357°
2026-05-07 21:03 54.65944 142.91342 36848 ft 439 kts 357°
2026-05-07 21:03 54.72015 142.91513 36848 ft 439 kts 357°
2026-05-07 21:04 54.78127 142.91671 36848 ft 439 kts 357°
2026-05-07 21:04 54.84240 142.91835 36850 ft 439 kts 357°
2026-05-07 21:05 54.90202 142.91997 36849 ft 440 kts 357°
2026-05-07 21:05 54.96319 142.92165 36851 ft 440 kts 357°
2026-05-07 21:06 55.02435 142.92335 36849 ft 440 kts 357°
2026-05-07 21:06 55.08553 142.92501 36849 ft 440 kts 357°
2026-05-07 21:07 55.14681 142.92665 36850 ft 440 kts 357°
2026-05-07 21:07 55.20797 142.92834 36849 ft 440 kts 357°
2026-05-07 21:08 55.26920 142.92993 36849 ft 440 kts 357°
2026-05-07 21:08 55.33045 142.93151 36849 ft 440 kts 357°
2026-05-07 21:09 55.39172 142.93316 36850 ft 440 kts 357°
2026-05-07 21:09 55.45302 142.93486 36849 ft 440 kts 357°
2026-05-07 21:10 55.51428 142.93659 36852 ft 441 kts 357°
2026-05-07 21:10 55.57560 142.93826 36849 ft 441 kts 357°
2026-05-07 21:11 55.63689 142.93986 36849 ft 441 kts 357°
2026-05-07 21:11 55.72891 142.94245 36849 ft 441 kts 357°
2026-05-07 21:12 55.79024 142.94412 36849 ft 441 kts 357°
2026-05-07 21:12 55.85161 142.94581 36850 ft 441 kts 357°
2026-05-07 21:13 55.91298 142.94764 36850 ft 441 kts 357°
2026-05-07 21:13 55.97435 142.94941 36850 ft 441 kts 357°
2026-05-07 21:14 56.03579 142.95098 36850 ft 441 kts 357°
2026-05-07 21:14 56.09722 142.95253 36850 ft 442 kts 357°
2026-05-07 21:15 56.15868 142.95436 36850 ft 442 kts 357°
2026-05-07 21:15 56.22007 142.95609 36850 ft 442 kts 357°
2026-05-07 21:16 56.28153 142.95774 36850 ft 442 kts 357°
2026-05-07 21:16 56.34309 142.95958 36850 ft 442 kts 357°
2026-05-07 21:17 56.40459 142.96138 36850 ft 442 kts 357°
2026-05-07 21:17 56.46614 142.96314 36850 ft 442 kts 357°
2026-05-07 21:18 56.52766 142.96486 36850 ft 442 kts 357°
2026-05-07 21:18 56.58878 142.96667 36850 ft 442 kts 357°
2026-05-07 21:19 56.65035 142.96834 36851 ft 442 kts 357°
2026-05-07 21:19 56.71194 142.96999 36851 ft 443 kts 357°
2026-05-07 21:20 56.77351 142.97167 36851 ft 443 kts 357°
2026-05-07 21:20 56.83510 142.97355 36850 ft 443 kts 357°
2026-05-07 21:21 56.89673 142.97546 36851 ft 443 kts 357°
2026-05-07 21:21 56.95841 142.97727 36850 ft 443 kts 357°
2026-05-07 21:22 57.01008 142.97874 36851 ft 443 kts 357°
2026-05-07 21:22 57.07132 142.98042 36851 ft 443 kts 357°
2026-05-07 21:23 57.13300 142.98207 36851 ft 443 kts 357°
2026-05-07 21:23 57.19475 142.98390 36851 ft 443 kts 357°
2026-05-07 21:24 57.25647 142.98582 36851 ft 444 kts 357°
2026-05-07 21:24 57.31819 142.98774 36851 ft 444 kts 357°
2026-05-07 21:25 57.37990 142.98964 36851 ft 444 kts 357°
2026-05-07 21:25 57.44165 142.99142 36851 ft 444 kts 357°
2026-05-07 21:26 57.50344 142.99330 36851 ft 444 kts 357°
2026-05-07 21:26 57.56518 142.99521 36851 ft 444 kts 357°
2026-05-07 21:27 57.62707 142.99711 36851 ft 444 kts 357°
2026-05-07 21:27 57.68886 142.99898 36851 ft 444 kts 357°
2026-05-07 21:28 57.75067 143.00078 36852 ft 444 kts 357°
2026-05-07 21:28 57.81256 143.00255 36852 ft 445 kts 357°
2026-05-07 21:29 57.87446 143.00450 36851 ft 445 kts 357°
2026-05-07 21:29 57.93627 143.00645 36852 ft 445 kts 357°
2026-05-07 21:30 57.99817 143.00841 36852 ft 445 kts 357°
2026-05-07 21:30 58.06008 143.01029 36852 ft 445 kts 357°
2026-05-07 21:31 58.12201 143.01215 36852 ft 445 kts 357°
2026-05-07 21:31 58.18395 143.01413 36851 ft 445 kts 357°
2026-05-07 21:32 58.24587 143.01609 36851 ft 445 kts 357°
2026-05-07 21:32 58.30782 143.01810 36852 ft 445 kts 357°
2026-05-07 21:33 58.36981 143.02008 36852 ft 445 kts 357°
2026-05-07 21:33 58.43141 143.02204 36851 ft 446 kts 357°
2026-05-07 21:34 58.49386 143.02392 36852 ft 446 kts 357°
2026-05-07 21:34 58.55543 143.02581 36852 ft 446 kts 357°
2026-05-07 21:35 58.61752 143.02790 36852 ft 446 kts 357°
2026-05-07 21:35 58.67955 143.02999 36852 ft 446 kts 357°
2026-05-07 21:36 58.74166 143.03189 36852 ft 446 kts 357°
2026-05-07 21:36 58.80367 143.03377 36852 ft 446 kts 357°
2026-05-07 21:37 58.86583 143.03577 36852 ft 446 kts 357°
2026-05-07 21:37 58.92799 143.03788 36852 ft 446 kts 357°
2026-05-07 21:38 58.99010 143.03985 36852 ft 447 kts 357°
2026-05-07 21:38 59.05224 143.04189 36853 ft 447 kts 357°
2026-05-07 21:39 59.11438 143.04399 36853 ft 447 kts 357°
2026-05-07 21:39 59.17659 143.04600 36854 ft 447 kts 357°
2026-05-07 21:40 59.23871 143.04805 36854 ft 447 kts 357°
2026-05-07 21:40 59.30090 143.05010 36854 ft 447 kts 357°
2026-05-07 21:41 59.36308 143.05201 36853 ft 447 kts 357°
2026-05-07 21:41 59.42524 143.05404 36854 ft 447 kts 357°
2026-05-07 21:42 59.48743 143.05608 36854 ft 447 kts 357°
2026-05-07 21:42 59.54959 143.05831 36854 ft 447 kts 357°
2026-05-07 21:43 59.61173 143.06045 36854 ft 447 kts 357°
2026-05-07 21:43 59.67389 143.06248 36854 ft 447 kts 357°
2026-05-07 21:44 59.73611 143.06461 36854 ft 447 kts 357°
2026-05-07 21:44 59.79831 143.06684 36854 ft 447 kts 357°
2026-05-07 21:45 59.86045 143.06907 36854 ft 447 kts 357°
2026-05-07 21:45 59.92267 143.07126 36855 ft 447 kts 357°
2026-05-07 21:46 59.98484 143.07353 36854 ft 447 kts 357°
2026-05-07 21:46 60.04708 143.07568 36854 ft 447 kts 357°
2026-05-07 21:47 60.10926 143.07777 36854 ft 447 kts 357°
2026-05-07 21:47 60.17147 143.07992 36854 ft 447 kts 357°
2026-05-07 21:48 60.23366 143.08211 36854 ft 447 kts 357°
2026-05-07 21:48 60.29584 143.08429 36854 ft 447 kts 357°
2026-05-07 21:49 60.35797 143.08658 36852 ft 447 kts 357°
2026-05-07 21:49 60.42013 143.08880 36851 ft 446 kts 357°
2026-05-07 21:50 60.48225 143.09090 36850 ft 447 kts 357°
2026-05-07 21:50 60.54444 143.09318 36850 ft 447 kts 357°
2026-05-07 21:51 60.60654 143.09552 36850 ft 447 kts 357°
2026-05-07 21:51 60.66870 143.09781 36850 ft 447 kts 357°
2026-05-07 21:52 60.73080 143.10002 36849 ft 446 kts 357°
2026-05-07 21:52 60.79291 143.10230 36849 ft 446 kts 357°
2026-05-07 21:53 60.85498 143.10460 36847 ft 446 kts 357°
2026-05-07 21:53 60.91712 143.10679 36847 ft 446 kts 357°
2026-05-07 21:54 60.97880 143.10901 36846 ft 446 kts 357°
2026-05-07 21:54 61.04091 143.11124 36847 ft 446 kts 357°
2026-05-07 21:55 61.10301 143.11366 36846 ft 447 kts 357°
2026-05-07 21:55 61.16514 143.11599 36848 ft 447 kts 357°
2026-05-07 21:56 61.22739 143.11818 36850 ft 447 kts 357°
2026-05-07 21:56 61.28959 143.12053 36851 ft 447 kts 357°
2026-05-07 21:57 61.35177 143.12313 36853 ft 447 kts 357°
2026-05-07 21:57 61.41401 143.12562 36853 ft 447 kts 357°
2026-05-07 21:58 61.47624 143.12786 36855 ft 447 kts 357°
2026-05-07 21:58 61.53846 143.13015 36856 ft 447 kts 357°
2026-05-07 21:59 61.60075 143.13260 36855 ft 447 kts 357°
2026-05-07 21:59 61.66297 143.13513 36855 ft 447 kts 357°
2026-05-07 22:00 61.72522 143.13759 36854 ft 447 kts 357°
2026-05-07 22:00 61.78746 143.13995 36853 ft 447 kts 357°
2026-05-07 22:01 61.84968 143.14216 36854 ft 447 kts 357°
2026-05-07 22:01 61.91195 143.14465 36854 ft 447 kts 357°
2026-05-07 22:02 61.97419 143.14715 36854 ft 447 kts 357°
2026-05-07 22:02 62.03643 143.14976 36854 ft 448 kts 357°
2026-05-07 22:03 62.09866 143.15223 36855 ft 447 kts 357°
2026-05-07 22:03 62.16093 143.15487 36854 ft 447 kts 357°
2026-05-07 22:04 62.22318 143.15731 36854 ft 447 kts 357°
2026-05-07 22:04 62.27493 143.15946 36854 ft 447 kts 357°
2026-05-07 22:05 62.33711 143.16209 36853 ft 447 kts 357°
2026-05-07 22:05 62.39936 143.16467 36852 ft 447 kts 357°
2026-05-07 22:06 62.46154 143.16720 36853 ft 447 kts 357°
2026-05-07 22:06 62.52379 143.16967 36853 ft 447 kts 357°
2026-05-07 22:07 62.58607 143.17225 36854 ft 447 kts 357°
2026-05-07 22:07 62.64832 143.17496 36854 ft 447 kts 357°
2026-05-07 22:08 62.71053 143.17777 36852 ft 447 kts 358°
2026-05-07 22:08 62.77273 143.18050 36851 ft 447 kts 357°
2026-05-07 22:09 62.83496 143.18296 36851 ft 447 kts 357°
2026-05-07 22:09 62.89713 143.18564 36852 ft 447 kts 357°
2026-05-07 22:10 62.95940 143.18838 36851 ft 447 kts 357°
2026-05-07 22:10 63.02159 143.19116 36851 ft 447 kts 357°
2026-05-07 22:11 63.08377 143.19384 36852 ft 447 kts 357°
2026-05-07 22:11 63.14599 143.19660 36851 ft 447 kts 357°
2026-05-07 22:12 63.20820 143.19915 36849 ft 447 kts 356°
2026-05-07 22:12 63.26862 143.17832 36639 ft 436 kts 337°
2026-05-07 22:13 63.29603 143.15275 36079 ft 430 kts 327°
2026-05-07 22:13 63.32105 143.11754 35841 ft 423 kts 320°
2026-05-07 22:13 63.36940 143.04090 35839 ft 429 kts 321°
2026-05-07 22:14 63.41828 142.96433 35839 ft 429 kts 321°
2026-05-07 22:14 63.46703 142.88724 35839 ft 429 kts 321°
2026-05-07 22:15 63.51571 142.80954 35836 ft 429 kts 321°
2026-05-07 22:15 63.56427 142.73160 35839 ft 430 kts 321°
2026-05-07 22:16 63.61293 142.65359 35841 ft 430 kts 321°
2026-05-07 22:16 63.66152 142.57512 35839 ft 430 kts 320°
2026-05-07 22:17 63.71005 142.49632 35851 ft 430 kts 320°
2026-05-07 22:17 63.75859 142.41740 35847 ft 430 kts 321°
2026-05-07 22:18 63.83133 142.29844 35847 ft 430 kts 320°
2026-05-07 22:19 63.87969 142.21869 35842 ft 429 kts 320°
2026-05-07 22:19 63.92800 142.13864 35846 ft 430 kts 320°
2026-05-07 22:20 63.97625 142.05850 35849 ft 430 kts 320°
2026-05-07 22:20 64.02459 141.97817 35840 ft 430 kts 320°
2026-05-07 22:21 64.07254 141.89796 35851 ft 430 kts 320°
2026-05-07 22:21 64.12066 141.81678 35849 ft 430 kts 320°
2026-05-07 22:22 64.16880 141.73520 35847 ft 430 kts 320°
2026-05-07 22:22 64.21689 141.65347 35853 ft 430 kts 320°
2026-05-07 22:23 64.26498 141.57158 35846 ft 430 kts 320°
2026-05-07 22:23 64.31305 141.48935 35854 ft 430 kts 320°
2026-05-07 22:24 64.36104 141.40677 35860 ft 430 kts 320°
2026-05-07 22:24 64.40892 141.32399 35858 ft 430 kts 319°
2026-05-07 22:25 64.45672 141.24100 35857 ft 430 kts 319°
2026-05-07 22:25 64.50454 141.15777 35850 ft 429 kts 319°
2026-05-07 22:26 64.55191 141.07470 35846 ft 429 kts 319°
2026-05-07 22:26 64.59952 140.99089 35843 ft 429 kts 319°
2026-05-07 22:27 64.64712 140.90682 35846 ft 429 kts 319°
2026-05-07 22:27 64.69467 140.82244 35851 ft 429 kts 319°
2026-05-07 22:28 64.74219 140.73779 35850 ft 429 kts 319°
2026-05-07 22:28 64.78970 140.65266 35844 ft 429 kts 319°
2026-05-07 22:29 64.83717 140.56719 35850 ft 429 kts 319°
2026-05-07 22:29 64.88453 140.48166 35845 ft 429 kts 319°
2026-05-07 22:30 64.93155 140.39627 35847 ft 430 kts 319°
2026-05-07 22:30 64.97889 140.31000 35852 ft 430 kts 319°
2026-05-07 22:31 65.02608 140.22316 35851 ft 430 kts 319°
2026-05-07 22:31 65.07333 140.13636 35860 ft 430 kts 319°
2026-05-07 22:32 65.12060 140.04917 35849 ft 430 kts 318°
2026-05-07 22:32 65.16774 139.96176 35855 ft 430 kts 318°
2026-05-07 22:33 65.21478 139.87399 35857 ft 430 kts 318°
2026-05-07 22:33 65.26147 139.78627 35857 ft 430 kts 318°
2026-05-07 22:34 65.30838 139.69771 35854 ft 429 kts 318°
2026-05-07 22:34 65.35532 139.60882 35849 ft 429 kts 318°
2026-05-07 22:35 65.40213 139.51976 35857 ft 429 kts 318°
2026-05-07 22:35 65.44894 139.43043 35855 ft 429 kts 318°
2026-05-07 22:36 65.49536 139.34145 35858 ft 429 kts 318°
2026-05-07 22:36 65.54198 139.25151 35858 ft 429 kts 317°
2026-05-07 22:37 65.58857 139.16125 35856 ft 429 kts 317°
2026-05-07 22:37 65.63511 139.07051 35848 ft 429 kts 317°
2026-05-07 22:38 65.68160 138.97967 35855 ft 429 kts 317°
2026-05-07 22:38 65.72798 138.88841 35850 ft 429 kts 317°
2026-05-07 22:39 65.77432 138.79692 35844 ft 429 kts 317°
2026-05-07 22:39 65.82059 138.70514 35856 ft 429 kts 317°
2026-05-07 22:40 65.86680 138.61307 35843 ft 429 kts 317°
2026-05-07 22:40 65.91296 138.52061 35851 ft 429 kts 317°
2026-05-07 22:41 65.95901 138.42802 35844 ft 429 kts 317°
2026-05-07 22:41 66.00508 138.33473 35851 ft 429 kts 317°
2026-05-07 22:42 66.05104 138.24125 35850 ft 429 kts 317°
2026-05-07 22:42 66.09702 138.14739 35856 ft 429 kts 317°
2026-05-07 22:43 66.13115 138.07734 35846 ft 429 kts 316°
2026-05-07 22:43 66.17140 137.99446 35844 ft 429 kts 316°
2026-05-07 22:44 66.21693 137.90029 35856 ft 430 kts 316°
2026-05-07 22:44 66.26268 137.80501 35858 ft 430 kts 316°
2026-05-07 22:45 66.30843 137.70943 35863 ft 429 kts 316°
2026-05-07 22:45 66.35412 137.61359 35853 ft 429 kts 316°
2026-05-07 22:46 66.39964 137.51751 35851 ft 429 kts 316°
2026-05-07 22:46 66.44509 137.42093 35857 ft 429 kts 316°
2026-05-07 22:47 66.49045 137.32415 35855 ft 429 kts 316°
2026-05-07 22:47 66.53581 137.22707 35858 ft 428 kts 316°
2026-05-07 22:48 66.58107 137.12982 35857 ft 428 kts 316°
2026-05-07 22:48 66.62636 137.03234 35842 ft 428 kts 316°
2026-05-07 22:49 66.67151 136.93450 35848 ft 428 kts 315°
2026-05-07 22:49 66.71655 136.83615 35853 ft 428 kts 315°
2026-05-07 22:50 66.76152 136.73751 35843 ft 428 kts 315°
2026-05-07 22:50 66.80614 136.63916 35846 ft 427 kts 315°
2026-05-07 22:51 66.85095 136.53988 35840 ft 428 kts 315°
2026-05-07 22:51 66.89575 136.44017 35846 ft 427 kts 315°
2026-05-07 22:52 66.93292 136.35704 35836 ft 427 kts 315°
2026-05-07 22:52 66.97759 136.25689 35842 ft 427 kts 315°
2026-05-07 22:53 67.02225 136.15619 35839 ft 427 kts 315°
2026-05-07 22:53 67.06679 136.05517 35843 ft 427 kts 315°
2026-05-07 22:54 67.11119 135.95361 35849 ft 428 kts 315°
2026-05-07 22:54 67.15563 135.85164 35847 ft 428 kts 315°
2026-05-07 22:55 67.20004 135.74938 35848 ft 428 kts 314°
2026-05-07 22:55 67.24424 135.64676 35843 ft 428 kts 314°
2026-05-07 22:56 67.28845 135.54378 35847 ft 428 kts 314°
2026-05-07 22:56 67.33228 135.44095 35857 ft 428 kts 314°
2026-05-07 22:57 67.37634 135.33705 35858 ft 428 kts 314°
2026-05-07 22:57 67.42039 135.23261 35859 ft 428 kts 314°
2026-05-07 22:58 67.46434 135.12780 35849 ft 428 kts 314°
2026-05-07 22:58 67.50814 135.02281 35849 ft 428 kts 314°
2026-05-07 22:59 67.55193 134.91748 35844 ft 428 kts 314°
2026-05-07 22:59 67.59566 134.81168 35852 ft 427 kts 314°
2026-05-07 23:00 67.64029 134.70852 35853 ft 430 kts 321°
2026-05-07 23:00 67.69360 134.63662 35844 ft 436 kts 333°
2026-05-07 23:01 67.74962 134.57445 35842 ft 436 kts 333°
2026-05-07 23:02 67.86624 134.44245 35840 ft 436 kts 333°
2026-05-07 23:02 67.91719 134.38433 35845 ft 436 kts 333°
2026-05-07 23:03 67.97307 134.32045 35842 ft 437 kts 333°